Dewpoint
18 18 18 19 20 21 22 22 21 17 15 17 19 21 23 24 25 23 23 29 32 33 33 34 35 36 36 36 36 35 35 35 37 38 40 41 41 43
18 18 17 19 20 22 23 23 23 21 19 19 21 22 23 23 25 24 24 30 31 33 33 34 34 33 34 33 32 32 33 34 36 39 40 40 41 42
18 18 19 20 21 22 23 23 22 23 21 22 22 22 24 22 21 22 24 23 26 36 35 33 31 30 30 31 32 33 35 35 37 38 37 38 39 40
19 19 19 19 21 22 22 22 22 23 22 21 23 23 21 22 23 24 26 28 29 26 29 28 29 29 29 30 32 33 33 33 34 34 35 37 37 38
19 20 20 20 21 22 22 22 23 23 25 25 21 22 23 25 27 26 22 19 17 23 26 28 28 29 30 32 30 31 31 32 33 33 33 35 35 37
20 20 20 20 21 22 22 22 22 21 21 21 22 25 28 25 19 15 15 18 18 18 25 26 27 27 28 28 28 27 28 29 30 31 31 32 33 34
20 20 20 23 27 25 22 22 21 22 24 27 25 22 19 16 15 17 17 20 22 21 19 19 20 20 20 25 26 27 27 29 29 30 32 34 34 34
20 20 21 24 24 28 28 28 27 31 26 23 21 18 16 16 17 20 24 20 18 20 19 22 22 20 20 20 25 27 28 29 30 30 32 33 33 34
21 21 21 21 25 22 27 29 33 28 26 20 18 17 17 20 26 24 22 22 20 21 22 21 20 18 19 18 26 27 28 29 29 30 31 33 33 33
21 21 21 21 23 24 24 30 24 22 19 18 18 21 27 23 20 20 24 24 23 20 19 19 19 18 18 19 26 27 28 29 29 30 31 31 32 31
21 21 23 23 25 27 27 24 19 18 20 25 28 26 25 26 25 24 22 20 17 17 18 18 19 19 20 20 20 27 27 28 28 29 29 30 31 31
21 23 26 23 27 30 22 19 18 16 23 25 16 17 20 20 25 21 22 19 18 17 18 20 20 21 19 20 22 22 21 27 28 30 31 31 31 29
20 23 23 26 27 25 24 18 19 23 21 15 16 17 18 19 19 20 22 22 19 19 20 23 21 20 20 20 21 23 24 24 25 26 29 32 34 34
22 21 21 26 24 23 22 24 25 23 16 16 18 19 18 19 20 21 22 22 23 23 24 24 22 21 20 19 19 23 24 26 27 26 27 29 33 35
21 23 25 24 22 20 22 24 22 16 17 19 19 18 18 19 20 20 21 21 22 23 24 24 24 24 24 22 22 22 25 25 26 26 27 27 28 29
23 21 21 19 20 20 17 16 16 16 18 19 18 18 19 18 18 19 19 19 20 19 23 25 26 27 24 24 24 23 25 24 27 29 31 32 33 33
21 16 13 14 15 14 14 15 16 16 17 17 18 17 17 17 17 19 19 19 17 18 20 23 26 27 26 26 23 25 26 27 31 32 32 32 32 33
17 13 14 15 15 14 15 15 16 18 17 18 17 17 17 16 18 18 18 18 18 19 21 23 24 24 23 24 27 25 28 28 32 32 32 30 30 33
15 15 15 15 15 16 16 17 16 16 18 17 17 16 18 17 17 16 17 18 18 20 23 23 23 23 21 19 23 27 28 30 31 31 31 31 31 34
16 16 15 15 16 16 17 17 16 16 16 16 17 18 16 16 16 16 16 17 20 23 21 22 23 24 24 22 22 25 31 31 30 30 30 31 33 36
15 15 15 15 16 17 17 17 16 17 19 18 16 17 17 17 16 16 17 22 24 21 20 21 24 29 26 24 23 24 28 33 33 32 31 30 30 31
15 15 15 16 17 17 16 16 16 16 16 17 16 17 18 18 17 18 19 20 21 23 22 23 24 23 15 19 23 24 26 30 31 33 34 34 30 27
15 15 15 16 16 16 16 16 16 16 17 17 17 18 18 18 18 20 21 22 24 23 23 22 23 20 18 19 24 24 26 27 29 29 31 36 36 35
Lifted_Index
18 19 19 20 20 21 21 20 19 17 16 18 21 22 23 23 23 23 22 22 21 20 18 17 16 15 14 13 13 13 12 12 11 11 11 10 10 9
18 18 19 20 20 21 21 21 20 19 18 19 21 22 23 23 23 22 21 21 19 18 16 15 14 14 13 13 13 12 12 11 11 10 10 10 9 9
18 18 19 20 20 21 21 22 22 21 20 20 21 22 23 22 21 20 19 18 17 15 14 13 13 13 13 12 12 12 11 11 11 10 10 10 9 9
18 19 20 20 21 21 22 22 22 22 21 21 22 22 21 20 19 18 17 16 15 14 13 13 13 13 12 12 12 11 11 11 11 11 11 10 10 10
19 20 20 21 21 22 22 22 22 22 22 21 21 20 19 18 17 16 16 15 15 15 14 14 14 13 13 12 12 12 12 12 12 12 11 11 11 11
20 21 21 22 22 22 22 22 22 21 21 19 18 18 17 16 16 16 16 16 16 16 16 15 15 15 14 14 14 14 14 13 13 12 12 12 12 12
21 21 22 22 22 22 22 22 21 19 18 17 16 16 16 16 16 16 16 16 16 17 17 16 16 16 16 16 16 16 15 14 14 13 12 12 12 11
21 22 22 22 22 22 22 20 18 17 16 16 16 16 16 16 17 17 16 16 15 17 17 16 16 16 16 16 16 16 16 14 14 13 12 11 10 10
22 22 22 22 22 22 21 19 17 16 16 17 17 17 17 17 17 17 16 16 15 16 17 16 15 16 16 16 16 16 15 14 13 12 11 10 9 9
22 22 22 22 22 20 19 17 17 16 16 17 17 17 17 17 17 17 16 16 15 16 16 15 15 15 15 15 15 15 14 13 12 11 10 10 9 9
22 22 22 21 20 19 17 17 17 16 16 16 16 16 17 17 17 17 16 15 14 14 15 15 14 14 14 14 14 14 13 12 11 10 10 10 9 9
22 22 21 20 18 17 17 17 17 16 16 16 16 16 16 16 16 16 16 15 14 14 14 14 13 12 12 12 12 11 11 10 9 9 9 9 9 9
21 21 20 18 17 17 16 17 17 17 16 16 15 15 15 15 15 15 16 15 15 14 14 14 13 11 10 9 9 9 9 8 8 8 8 8 8 8
20 20 18 17 17 17 17 17 17 17 16 15 15 15 15 15 15 15 15 15 15 15 14 14 12 11 9 8 7 7 7 7 7 7 8 8 8 8
19 18 17 17 17 17 16 16 16 16 15 15 14 15 15 15 15 14 14 14 14 14 14 13 12 11 9 8 7 7 7 7 7 8 8 8 8 7
18 17 17 17 16 16 16 16 16 15 15 14 14 14 15 14 14 14 14 13 13 13 12 12 12 11 9 8 8 7 7 7 8 8 8 8 8 7
17 17 16 16 16 15 15 15 15 14 14 14 14 13 13 13 13 13 13 13 12 12 11 11 11 10 9 9 8 7 7 8 8 8 8 7 6 5
16 16 16 15 15 14 14 14 13 13 13 13 13 12 12 12 12 12 12 12 12 11 11 11 10 10 9 9 8 8 8 8 8 8 8 6 4 3
16 16 15 15 15 14 14 13 12 12 12 12 11 11 11 11 11 11 11 11 11 12 11 11 10 10 9 9 9 9 9 9 8 8 7 5 3 3
16 16 16 15 15 14 13 12 12 11 11 11 10 10 11 11 11 10 11 11 11 11 11 11 11 11 10 10 9 9 9 9 9 8 6 5 4 3
16 16 16 15 14 14 13 12 12 11 10 10 10 10 10 10 10 10 10 11 11 11 11 11 12 12 11 10 10 9 9 10 10 9 8 6 5 4
17 16 16 15 14 13 13 12 11 11 10 10 10 10 10 10 10 10 10 10 11 11 11 12 12 12 11 11 10 10 9 9 10 10 10 9 7 6
17 16 16 15 14 13 13 12 11 11 10 10 10 10 10 10 10 10 10 10 10 11 11 12 12 12 12 11 10 10 9 9 9 10 10 10 9 8